Bismarck, ND

1:29 PM CDT on March 29, 2017 (GMT -0500)
Bismarck Municipal

Weather History for KBIS - September, 2012

Change the Weather History Date:

Saturday, September 8, 2012

  Actual Average Record
Temperature  
Mean Temperature 57 °F 62 °F  
Max Temperature 73 °F 76 °F 105 °F (1959)
Min Temperature 41 °F 48 °F 29 °F (1895)
Degree Days  
Heating Degree Days 8 5  
Month to date heating degree days 23 32  
Since 1 July heating degree days 49 87  
Cooling Degree Days 0 2  
Month to date cooling degree days 21 20  
Year to date cooling degree days 587 501  
Growing Degree Days 8 (Base 50)    
Moisture  
Dew Point 36 °F    
Average Humidity 49    
Maximum Humidity 76    
Minimum Humidity 22    
Precipitation  
Precipitation 0.00 in 0.05 in 1.38 in (2007)
Month to date precipitation T 0.48  
Year to date precipitation 12.13 14.29  
Snow  
Snow 0.00 in 0.00 in 0.00 in (2002)
Month to date snowfall 0.0 0.0  
Since 1 July snowfall 0.0 0.0  
Since 1 September snowfall 0.0 0.0  
Snow Depth 0.00 in    
Sea Level Pressure  
Sea Level Pressure 30.15 in    
Wind  
Wind Speed 8 mph (NNW)    
Max Wind Speed 24 mph    
Max Gust Speed 31 mph    
Visibility 10 miles    
Events      
T = Trace of Precipitation, MM = Missing Value Source: NWS Daily Summary

Daily Weather History Graph

Daily Weather History Graph

Search for Another Location

Airport or City:

Trip Planner

Search our weather history database for the weather conditions in past years. The results will help you decide how hot, cold, wet, or windy it might be!

Date:

Astronomy

Sep. 08, 2012 Rise Set
Actual Time 7:12 AM CDT 8:07 PM CDT
Civil Twilight 6:41 AM CDT 8:38 PM CDT
Nautical Twilight 6:04 AM CDT 9:15 PM CDT
Astronomical Twilight 5:25 AM CDT 9:53 PM CDT
Moon No Moon Rise 3:22 PM CDT (9/8)
Length of Visible Light 13h 56m
Length of Day
12h 55m
Waning Gibbous, 48% of the Moon is Illuminated
Sep 8
Waning Gibbous
Sep 15
New
Sep 22
First Quarter
Sep 29
Full
Oct 8
Last Quarter

Hourly Weather History & Observations

Time (CDT) Temp. Dew Point Humidity Pressure Visibility Wind Dir Wind Speed Gust Speed Precip Events Conditions
12:52 AM 51.1 °F 39.0 °F 63% 30.14 in 10.0 mi WSW 5.8 mph - N/A   Clear
1:52 AM 48.9 °F 39.0 °F 69% 30.12 in 10.0 mi WSW 3.5 mph - N/A   Clear
2:52 AM 50.0 °F 39.0 °F 66% 30.11 in 10.0 mi WSW 4.6 mph - N/A   Clear
3:52 AM 50.0 °F 37.9 °F 63% 30.10 in 10.0 mi WSW 3.5 mph - N/A   Clear
4:52 AM 46.0 °F 37.0 °F 71% 30.10 in 10.0 mi Calm Calm - N/A   Clear
5:52 AM 46.9 °F 37.0 °F 68% 30.08 in 10.0 mi Calm Calm - N/A   Clear
6:52 AM 43.0 °F 36.0 °F 76% 30.07 in 10.0 mi Calm Calm - N/A   Clear
7:52 AM 55.0 °F 39.0 °F 55% 30.08 in 10.0 mi WNW 9.2 mph - N/A   Clear
8:52 AM 60.1 °F 41.0 °F 49% 30.10 in 10.0 mi NW 8.1 mph - N/A   Clear
9:52 AM 61.0 °F 44.1 °F 54% 30.12 in 10.0 mi North 20.7 mph 27.6 mph N/A   Clear
10:52 AM 63.0 °F 44.1 °F 50% 30.16 in 10.0 mi North 20.7 mph 25.3 mph N/A   Clear
11:52 AM 64.9 °F 41.0 °F 42% 30.18 in 10.0 mi North 17.3 mph - N/A   Clear
12:52 PM 68.0 °F 39.0 °F 35% 30.18 in 10.0 mi North 11.5 mph 24.2 mph N/A   Clear
1:52 PM 70.0 °F 36.0 °F 29% 30.18 in 10.0 mi North 13.8 mph 19.6 mph N/A   Clear
2:52 PM 72.0 °F 32.0 °F 23% 30.17 in 10.0 mi North 18.4 mph 25.3 mph N/A   Clear
3:52 PM 72.0 °F 33.1 °F 24% 30.18 in 10.0 mi North 15.0 mph - N/A   Clear
4:52 PM 72.0 °F 30.0 °F 21% 30.17 in 10.0 mi North 16.1 mph 21.9 mph N/A   Clear
5:52 PM 71.1 °F 30.0 °F 22% 30.17 in 10.0 mi North 13.8 mph - N/A   Clear
6:52 PM 70.0 °F 30.9 °F 24% 30.18 in 10.0 mi North 12.7 mph - N/A   Clear
7:52 PM 64.9 °F 30.9 °F 28% 30.18 in 10.0 mi NNE 5.8 mph - N/A   Clear
8:52 PM 60.1 °F 32.0 °F 35% 30.20 in 10.0 mi North 3.5 mph - N/A   Clear
9:52 PM 50.0 °F 33.1 °F 52% 30.22 in 10.0 mi Calm Calm - N/A   Clear
10:52 PM 48.0 °F - N/A% 30.22 in 10.0 mi Calm Calm - N/A   Clear
11:52 PM 48.0 °F - N/A% 30.24 in 10.0 mi Calm Calm - N/A   Clear